Regional Weather Roundup
Issued by NWS

Home | Current Version | Previous Version | Graphics & Text | Print | Product List | Glossary On
Versions: 1 2 3 4 5 6 7 8 9 10 11 12 13 14 15 16 17 18 19 20 21 22 23 24 25 26 27
000
ASUS43 KDMX 231907
RWRIA

WEATHER ROUNDUP FOR IOWA
NATIONAL WEATHER SERVICE DES MOINES IA
200 PM CDT THU OCT 23 2014

NOTE: "FAIR" INDICATES FEW OR NO CLOUDS BELOW 12,000 FEET WITH NO
SIGNIFICANT WEATHER AND/OR OBSTRUCTIONS TO VISIBILITY.

* - THESE STATIONS ARE NOT NWS STATIONS...THUS NOT UNDER NWS
QUALITY CONTROL.  THEY ALSO DO NOT REPORT WEATHER SUCH
AS PRECIPITATION OR FOG.

IAZ001>003-012>014-020>022-031>034-043>046-232000-
   NORTHWEST IOWA

CITY           SKY/WX    TMP DP  RH WIND       PRES   REMARKS
CARROLL *      SUNNY     68  48  49 CALM      30.02F
CHEROKEE *     SUNNY     66  55  68 W5        30.02F
DENISON *      SUNNY     68  48  49 CALM      30.01F
LE MARS *      SUNNY     68  52  56 S8        30.02F
ORANGE CITY *  SUNNY     70  48  46 SW8       30.01F
SHELDON *      SUNNY     68  48  49 SW12      30.01F
SIOUX CITY     SUNNY     71  48  43 S8        30.02F
SPENCER        SUNNY     68  48  48 W9        30.01F
STORM LAKE *   SUNNY     66  48  52 VRB6      30.03F
$$

IAZ055>058-069>071-079>083-090>094-232000-
   SOUTHWEST IOWA

CITY           SKY/WX    TMP DP  RH WIND       PRES   REMARKS
ATLANTIC *     SUNNY     70  54  56 CALM      30.02F
AUDUBON *      SUNNY     70  52  52 CALM      30.04F
CLARINDA *     SUNNY     70  55  60 VRB3      30.05F
COUNCIL BLFS * SUNNY     70  55  60 SW6       30.03F
CRESTON *      MOSUNNY   66  57  72 W7        30.04F
HARLAN  *      SUNNY     68  52  56 VRB5      30.06F
LAMONI         CLOUDY    60  58  92 SW8       30.06F
RED OAK *      SUNNY     70  55  60 W5        30.04F
SHENANDOAH *   SUNNY     70  55  60 NW6       30.04F
$$

IAZ047>049-059>061-072>074-084-232000-
   CENTRAL IOWA

CITY           SKY/WX    TMP DP  RH WIND       PRES   REMARKS
AMES           MOSUNNY   67  53  61 VRB5      30.02F
ANKENY *       PTSUNNY   66  59  77 NW3       30.02F
CHARITON *     CLOUDY    57  57 100 SW6       30.05F FOG
DES MOINES     PTSUNNY   68  58  70 CALM      30.02F
GRINNELL*      CLOUDY    59  55  88 SW7       30.04F
KNOXVILLE *    CLOUDY    61  54  77 SW12      30.03F
MARSHALLTOWN   CLOUDY    59  56  89 SW5       30.03F
PELLA *        CLOUDY    61  54  77 SW8       30.05F
PERRY *          N/A     70  50  49 W7        30.02F
$$

IAZ004>006-015-016-023>025-035-036-232000-
   NORTH CENTRAL IOWA

CITY           SKY/WX    TMP DP  RH WIND       PRES   REMARKS
ALGONA *       SUNNY     64  54  68 W7        30.02F
CLARION *      SUNNY     64  54  68 NW6       30.02F
ESTHERVILLE    SUNNY     67  50  54 W9        30.00F
FORT DODGE *   SUNNY     66  52  59 W5        30.03F
MASON CITY     MOSUNNY   64  54  69 NW7       30.02F
FOREST CITY *  SUNNY     64  54  68 W7        30.01S
IOWA FALLS *     N/A     64  54  68 NW3       30.03F
$$

IAZ007>011-017>019-026>030-037>042-050>054-066-232000-
   NORTHEAST IOWA

CITY           SKY/WX    TMP DP  RH WIND       PRES   REMARKS
CEDAR RAPIDS   CLOUDY    53  49  86 S6        30.04F
CHARLES CITY * CLOUDY    54  52  94 S3        30.03F FOG
CLINTON *      CLOUDY    59  45  58 S13       30.08F
DECORAH *      CLOUDY    50  48  93 S5        30.02F
DUBUQUE        CLOUDY    48  47  96 S9        30.05F
MONTICELLO *   CLOUDY    52  50  93 S5        30.05F
OELWEIN *      CLOUDY    50  50 100 S9        30.05S FOG
WATERLOO       CLOUDY    54  52  93 S6        30.03F
$$

IAZ064-065-067-068-078-232000-
   EAST CENTRAL IOWA

CITY           SKY/WX    TMP DP  RH WIND       PRES   REMARKS
DAVENPORT      CLOUDY    61  45  55 S16G24    30.06F
IOWA CITY      CLOUDY    57  51  80 S3        30.06F
MT. PLEASANT * PTSUNNY   64  48  55 S10G16    30.06F
MUSCATINE *    CLOUDY    63  48  59 S12       30.05F
QUAD CITIES    CLOUDY    60  46  59 S8        30.05F
$$

IAZ062-063-075>077-085>089-095>099-232000-
   SOUTHEAST IOWA

CITY           SKY/WX    TMP DP  RH WIND       PRES   REMARKS
BURLINGTON     CLOUDY    58  47  66 S9        30.07F
FAIRFIELD *    CLOUDY    66  54  63 SW9       30.04F
FORT MADISON * PTSUNNY   59  48  67 S9        30.08F
KEOKUK *       PTSUNNY   57  48  72 S9        30.08F
OSKALOOSA *    CLOUDY    63  54  72 W9        30.05F
CENTERVILLE *  PTSUNNY   63  57  82 SW8       30.06F
OTTUMWA        CLOUDY    64  55  72 W10       30.04F
WASHINGTON *   CLOUDY    64  54  68 SW9       30.04F
$$

ABBREVIATIONS USED IN REMARKS
   TC - TEMPERATURES IN CELSIUS
  WCI - WIND CHILL INDEX
   HX - HEAT INDEX
  VSB - VISIBILITY
$$




USA.gov is the U.S. government's official web portal to all federal, state and local government web resources and services.